Вернуться в каталог

STARLINK-5331

АктивенСвязьVLEO
NORAD 55280·PAYLOAD·🇺🇸 United States

Запущен Jan 19, 2023 с Vandenberg Space Force Base

Loading…

Ближайшие Пролёты (ближайшие 24 часа)

TLE

СвежийSource: CelesTrak SupGP

Эпоха: Sep 15, 2026, 02:47 UTC

1 55280C 23010M   26258.11645833  .00445580  00000+0  37253-1 0  2584
2 55280  69.9997 286.9900 0003725 270.3691 185.5382 14.98196044    19

Отслеживайте STARLINK-5331 в реальном времени с AllMySat

Download on the App Store